Location: Tehachapi Municipal Airport
(35.1300°N, 118.4400°W)
Time: 20:06:04
(UTC-07:00)

BREEZE M DEB (TANK) - Visible Passes

Search period start: 20 October 2017 00:00
Search period end: 30 October 2017 00:00
Orbit: 306 x 11957 km, 49.5° (Epoch: 18 October)

Date Brightness Start Highest point End Pass type
(mag) Time Alt. Az. Time Alt. Az. Time Alt. Az.
20 Oct 8.2 03:49:38 10° NW 04:47:02 70° WSW 06:12:25 10° S visible
20 Oct 5.0 18:50:12 10° SSW 18:56:18 50° ESE 19:19:34 10° NE visible
20 Oct 7.2 22:51:02 10° WNW 23:08:32 60° N 00:38:11 10° E visible
21 Oct 8.1 02:58:26 10° NW 03:51:16 81° WSW 05:22:18 10° SSE visible
21 Oct 6.7 22:01:14 10° W 22:14:46 60° N 23:28:55 10° E visible
22 Oct 8.0 02:07:35 10° NW 02:54:03 88° NE 04:30:39 10° SSE visible
22 Oct 8.5 06:25:06 10° NW 07:15:01 29° W 08:18:53 10° SW visible
22 Oct 6.3 21:11:36 10° W 21:22:15 63° NNW 22:19:45 10° ENE visible
23 Oct 7.9 01:17:00 10° WNW 01:56:01 79° NE 03:37:10 10° SE visible
23 Oct 8.4 05:30:07 10° NW 06:24:47 40° W 07:37:24 10° SSW visible
23 Oct 5.7 20:22:15 10° WSW 20:30:44 72° NNW 21:14:27 10° ENE visible
24 Oct 7.8 00:26:39 10° WNW 00:58:05 71° NNE 02:41:19 10° SE visible
24 Oct 8.3 04:37:00 10° NW 05:33:05 51° WSW 06:52:08 10° S visible
24 Oct 5.2 19:33:11 10° SW 19:40:09 87° NW 20:13:28 10° NE visible
24 Oct 7.6 23:36:26 10° WNW 00:01:06 65° NNE 01:42:13 10° ESE visible
25 Oct 8.2 03:44:56 10° NW 04:39:50 62° WSW 06:04:34 10° S visible
25 Oct 4.8 18:44:28 10° SSW 18:50:27 69° SE 19:15:39 10° NE visible
25 Oct 7.3 22:46:22 10° WNW 23:05:30 60° NNE 00:38:46 10° ESE visible
26 Oct 8.1 02:53:33 10° NW 03:45:02 73° WSW 05:15:15 10° SSE visible
26 Oct 6.9 21:56:27 10° WNW 22:11:16 58° N 23:30:37 10° E visible
27 Oct 8.0 02:02:37 10° NW 02:48:54 84° SW 04:24:21 10° SSE visible
27 Oct 8.6 06:23:30 10° WNW 07:05:24 22° W 08:00:45 10° SW visible
27 Oct 6.5 21:06:40 10° W 21:18:13 58° N 22:20:24 10° ENE visible
28 Oct 7.9 01:12:00 10° NW 01:51:50 85° NE 03:31:43 10° SE visible
28 Oct 8.4 05:26:30 10° NW 06:15:40 32° W 07:24:15 10° SW visible
28 Oct 6.0 20:17:05 10° W 20:26:11 63° NNW 21:12:56 10° ENE visible
29 Oct 7.8 00:21:36 10° WNW 00:54:32 76° NE 02:36:56 10° SE visible
29 Oct 8.3 04:32:29 10° NW 05:24:33 43° WSW 06:41:30 10° SSW visible
29 Oct 5.4 19:27:45 10° WSW 19:35:02 72° NNW 20:10:14 10° ENE visible
